NOAA 16 DEB, 41273

Orbit data source: Space-Track

NOAA 16 DEB, 41273 is space debris in SSO originally from a launch on Thu, 21 Sep 2000 UTC launched from the Air Force Western Test Range (AFWTR). Debris objects in space refer to the collection of defunct objects orbiting the Earth. Examples of debris include non-operational satellites, rocket bodies, and fragments generated from explosions, collisions, or faulty payload assembly.

Loading next visibility...
Identifier
41273, 2000-055FZ
Orbit
SSO
Country
Flag of USUS
Related business
Manufacturer
Unknown
Mission
Spacecraft
Bus & Motor
Unknown
Mass
Unknown
Launch date (UTC)
2000-09-21 (25 years ago)
Launch vehicle
Unknown
Launch site
Air Force Western Test Range (AFWTR)
Object type
Payload
Rocket body
Debris
Shape & HBR
Unknown shape, 0.1 m
Radar Cross Section
Small (<0.1 m²)

Expand to show TLE details & history
Last TLE update: 9 hours ago

TLE from 9 hours ago
0 NOAA 16 DEB
1 41273U 00055FZ  26034.13361057  .00019510  00000-0  29438-2 0  9992
2 41273  98.9270 283.0952 0034543 348.7529  11.2900 14.73969925530567
Epoch: 2026-02-03T03:12Z
TLE epoch observation values (Epoch: 2026-02-03T03:12:23.953Z)
Latitude
-0.00007°
Longitude
101.67649°
Altitude
627.6 km
Speed
7.558 km/s
True Right ascension
18h 52m 22s
True Declination
0° 00' 00"
Sunlit
Object was in daylight at epoch
Visualization orbit readout
Latitude
Unknown
Longitude
Unknown
Altitude
Unknown
Speed
Unknown
Apparent Right ascension
Unknown
Apparent Declination
Unknown
Sunlit
N/A
Visualization observer readout
Local Sidereal Time
14:23:35
Azimuth
Unknown
Elevation
Unknown
Doppler factor
Unknown
Orbital elements
Apogee altitude
669.782 km
Perigee altitude
621.259 km
Semi-major axis
7,023.658 km
Eccentricity
0.00345
Inclination
98.927°
RAAN
283.0952°
Arg. of periapsis
348.7529°
True anomaly
11.36782°
Mean anomaly
11.29°
Eccentric anomaly
11.32888°
Mean motion
3.68721 °/min
Orbital period
97.63 mins
BSTAR
0.0029438
Loading maneuver chart data...
Computing Atmospheric mass density...
Loading historical data...
Loading historical data...
Loading historical data...
Loading historical data...
Loading historical data...
Loading historical data...
Loading historical data...

Documentation

Showing up to 5 results
|